EW2575 Weather Reports


Display with metric or nautical units.
time (UTC)temp
F
wind
direction
speed
MPH
gust
MPH
rain 1hr
in
rain 24hr
in
rain mn
in
humidity
%
barometer
mb
20260505055506 62 84 2.0 5.0 0.00 0.00 0.00 77 1014.1
20260505055006 62 13 2.0 8.0 0.00 0.00 0.00 77 1014.1
20260505054506 62 115 6.0 9.0 0.00 0.00 0.00 77 1014.0
20260505054011 62 107 7.0 9.0 0.00 0.00 0.00 77 1014.0
20260505053504 62 117 6.0 9.0 0.00 0.00 0.00 77 1013.9
20260505053004 62 115 6.0 8.0 0.00 0.00 0.00 77 1013.9
20260505052503 62 128 6.0 8.0 0.00 0.00 0.00 77 1013.9
20260505052003 62 102 5.0 8.0 0.00 0.00 0.00 78 1014.0
20260505051504 62 112 6.0 8.0 0.00 0.00 0.00 77 1014.1
20260505051002 62 84 5.0 7.0 0.00 0.00 0.00 78 1014.2
20260505050504 61 113 5.0 7.0 0.00 0.00 0.00 79 1014.2
20260505041603 62 122 5.0 8.0 0.00 0.00 0.00 77 1014.4
20260505041058 62 118 6.0 8.0 0.00 0.00 0.00 77 1014.3
20260505040556 62 115 4.0 7.0 0.00 0.00 0.00 77 1014.5
20260505040056 62 111 5.0 8.0 0.00 0.00 0.00 77 1014.5
20260505035555 63 111 5.0 8.0 0.00 0.00 0.00 76 1014.6
20260505035059 63 96 6.0 9.0 0.00 0.00 0.00 76 1014.6
20260505034554 63 109 6.0 9.0 0.00 0.00 0.00 77 1014.6
20260505034053 62 113 4.0 8.0 0.00 0.00 0.00 77 1014.6
20260505033552 62 116 6.0 8.0 0.00 0.00 0.00 78 1014.6
20260505033052 62 114 6.0 8.0 0.00 0.00 0.00 79 1014.6
20260505032551 61 115 6.0 7.0 0.00 0.00 0.00 79 1014.7
20260505032055 62 119 4.0 7.0 0.00 0.00 0.00 78 1014.7
20260505031554 62 112 3.0 6.0 0.00 0.00 0.00 78 1014.9
20260505031050 62 86 2.0 6.0 0.00 0.00 0.00 78 1014.9
20260505030551 62 98 2.0 7.0 0.00 0.00 0.00 78 1014.9
20260505030049 62 119 3.0 8.0 0.00 0.00 0.00 78 1014.8
20260505025550 62 121 4.0 8.0 0.00 0.00 0.00 77 1014.8
20260505025049 62 109 6.0 9.0 0.00 0.00 0.00 78 1014.8
20260505024552 61 112 6.0 10.0 0.00 0.00 0.00 79 1014.8
20260505024046 61 107 8.0 10.0 0.00 0.00 0.00 79 1014.8
20260505023546 61 108 7.0 11.0 0.00 0.00 0.00 79 1014.9
20260505023051 61 120 8.0 11.0 0.00 0.00 0.00 79 1014.8
20260505022545 61 122 8.0 10.0 0.00 0.00 0.00 79 1014.8
20260505022044 61 118 8.0 10.0 0.00 0.00 0.00 80 1014.8
20260505021543 61 107 4.0 9.0 0.00 0.00 0.00 81 1015.0
20260505021042 61 111 4.0 9.0 0.00 0.00 0.00 81 1015.0
20260505020540 60 90 6.0 10.0 0.00 0.00 0.00 82 1015.2
20260505020039 60 122 6.0 9.0 0.00 0.00 0.00 84 1015.4
20260505015538 60 94 0.0 6.0 0.00 0.00 0.00 85 1015.5
20260505015040 60 94 2.0 4.0 0.00 0.00 0.00 85 1015.6
20260505014536 60 94 1.0 3.0 0.00 0.00 0.00 85 1015.8
20260505014040 60 94 1.0 3.0 0.00 0.00 0.00 86 1016.0
20260505013535 60 94 1.0 3.0 0.00 0.00 0.00 86 1015.8
20260505013053 60 94 2.0 3.0 0.00 0.00 0.00 86 1015.8
20260505012539 60 94 0.0 0.0 0.00 0.00 0.00 86 1015.8
20260505012034 60 125 0.0 0.0 0.00 0.00 0.00 86 1016.0
20260505011535 60 125 0.0 2.0 0.00 0.00 0.00 87 1016.1
20260505011033 60 125 0.0 3.0 0.00 0.00 0.00 87 1016.2
20260505010532 60 89 1.0 5.0 0.00 0.00 0.00 87 1016.1
20260505010034 60 140 1.0 5.0 0.00 0.00 0.00 88 1016.2
20260505005534 60 165 3.0 5.0 0.00 0.00 0.00 88 1016.3
20260505005031 60 221 1.0 3.0 0.00 0.00 0.00 90 1016.2
20260505004531 60 72 1.0 4.0 0.00 0.00 0.00 90 1016.1
20260505004030 60 72 1.0 8.0 0.00 0.00 0.00 90 1016.1
20260505003533 60 84 2.0 9.0 0.00 0.00 0.00 91 1016.3
20260505003032 59 96 5.0 8.0 0.00 0.00 0.00 93 1016.2
20260505002527 59 124 4.0 7.0 0.00 0.00 0.00 93 1016.2
20260505002026 60 147 3.0 5.0 0.00 0.00 0.00 94 1016.5
20260505001525 60 137 2.0 4.0 0.00 0.00 0.00 94 1016.7
20260505001024 60 132 3.0 4.0 0.00 0.00 0.00 94 1016.9
20260505000526 60 135 1.0 4.0 0.00 0.00 0.00 94 1017.0
20260505000026 60 137 3.0 7.0 0.00 0.00 0.00 94 1016.9
20260504235523 60 170 3.0 5.0 0.00 0.00 0.00 93 1017.0
20260504235022 60 279 1.0 3.0 0.00 0.00 0.00 93 1017.0
20260504234521 60 279 1.0 3.0 0.00 0.00 0.00 93 1017.0
20260504234026 60 38 0.0 2.0 0.00 0.00 0.00 93 1016.8
20260504233521 60 38 0.0 3.0 0.00 0.00 0.00 94 1016.7
20260504233020 60 38 1.0 3.0 0.00 0.00 0.00 94 1016.6
20260504232519 60 38 2.0 4.0 0.00 0.00 0.00 94 1016.6
20260504232019 60 38 2.0 4.0 0.00 0.00 0.00 93 1016.7
20260504231519 60 38 2.0 3.0 0.00 0.00 0.00 94 1016.8
20260504231018 60 28 0.0 2.0 0.00 0.00 0.00 94 1016.9
20260504230517 60 28 0.0 3.0 0.00 0.00 0.00 94 1016.9
20260504230016 59 28 1.0 3.0 0.00 0.00 0.00 94 1016.8
20260504225516 59 91 1.0 3.0 0.00 0.00 0.00 93 1016.8
20260504225017 60 196 0.0 2.0 0.00 0.00 0.00 94 1016.8
20260504224519 61 213 0.0 3.0 0.00 0.00 0.00 94 1017.0
20260504224014 61 213 0.0 3.0 0.00 0.00 0.00 94 1016.9
20260504223515 61 213 1.0 3.0 0.00 0.00 0.00 94 1016.9
20260504223015 61 188 1.0 4.0 0.00 0.00 0.00 94 1016.9
20260504222514 61 210 1.0 4.0 0.00 0.00 0.00 94 1016.9
20260504222019 61 222 2.0 5.0 0.00 0.00 0.00 94 1016.9
20260504221514 61 244 4.0 5.0 0.00 0.00 0.00 93 1016.8
20260504221014 61 239 2.0 4.0 0.00 0.00 0.00 93 1016.8
20260504220513 61 219 2.0 5.0 0.00 0.00 0.00 93 1016.8
20260504220016 61 180 2.0 5.0 0.00 0.00 0.00 93 1016.7
20260504215514 61 180 1.0 4.0 0.00 0.00 0.00 93 1016.7
20260504215014 61 182 3.0 5.0 0.00 0.00 0.00 93 1016.5
20260504214520 61 199 3.0 5.0 0.00 0.00 0.00 93 1016.6
20260504214017 61 168 3.0 6.0 0.00 0.00 0.00 93 1016.6
20260504213513 61 141 3.0 6.0 0.00 0.00 0.00 93 1016.6
20260504213012 62 170 3.0 8.0 0.00 0.00 0.00 92 1016.5
20260504212512 62 219 4.0 8.0 0.00 0.00 0.00 92 1016.5
20260504212013 62 212 2.0 6.0 0.00 0.00 0.00 92 1016.5
20260504211523 62 172 2.0 6.0 0.00 0.00 0.00 92 1016.4
20260504211012 62 159 2.0 5.0 0.00 0.00 0.00 91 1016.5
20260504210511 62 149 2.0 5.0 0.00 0.00 0.00 91 1016.5
20260504210011 63 168 3.0 5.0 0.00 0.00 0.00 90 1016.5
20260504205514 63 242 2.0 4.0 0.00 0.00 0.00 90 1016.6
20260504205011 63 247 2.0 4.0 0.00 0.00 0.00 89 1016.5
20260504204517 63 271 2.0 4.0 0.00 0.00 0.00 89 1016.4
20260504204010 63 122 1.0 4.0 0.00 0.00 0.00 90 1016.3
20260504203513 63 114 2.0 4.0 0.00 0.00 0.00 90 1016.3
20260504203012 63 150 3.0 5.0 0.00 0.00 0.00 90 1016.2
20260504202510 63 146 1.0 3.0 0.00 0.00 0.00 89 1016.2
20260504202009 63 200 1.0 5.0 0.00 0.00 0.00 89 1016.3
20260504201510 63 192 2.0 5.0 0.00 0.00 0.00 89 1016.2
20260504201009 63 207 2.0 5.0 0.00 0.00 0.00 88 1016.2
20260504200509 63 183 3.0 6.0 0.00 0.00 0.00 88 1016.0
20260504200009 63 184 4.0 5.0 0.00 0.00 0.00 88 1015.9
20260504195508 63 161 2.0 4.0 0.00 0.00 0.00 87 1015.8
20260504195008 64 167 3.0 5.0 0.00 0.00 0.00 86 1015.8
20260504194508 64 281 2.0 4.0 0.00 0.00 0.00 85 1015.9
20260504194008 64 281 2.0 7.0 0.00 0.00 0.00 84 1015.8
20260504193508 65 281 3.0 7.0 0.00 0.00 0.00 83 1015.6
20260504193018 66 294 3.0 6.0 0.00 0.00 0.00 82 1015.5
20260504192507 66 331 1.0 5.0 0.00 0.00 0.00 82 1015.3
20260504192007 66 292 3.0 6.0 0.00 0.00 0.00 81 1015.3
20260504191507 67 241 2.0 3.0 0.00 0.00 0.00 81 1015.2
20260504191007 66 241 0.0 4.0 0.00 0.00 0.00 82 1015.3
20260504190507 66 241 1.0 5.0 0.00 0.00 0.00 83 1015.4
20260504190117 65 241 2.0 5.0 0.00 0.00 0.00 83 1015.6
20260504185508 65 211 0.0 5.0 0.00 0.00 0.00 84 1015.6
20260504185010 65 207 1.0 7.0 0.00 0.00 0.00 84 1015.6
20260504184506 65 238 2.0 7.0 0.00 0.00 0.00 85 1015.7
20260504184007 64 242 3.0 6.0 0.00 0.00 0.00 85 1015.7
20260504183507 64 233 3.0 8.0 0.00 0.00 0.00 85 1015.7
20260504183006 64 261 3.0 7.0 0.00 0.00 0.00 84 1015.6
20260504182505 65 267 4.0 9.0 0.00 0.00 0.00 84 1015.5
20260504182005 65 238 5.0 9.0 0.00 0.00 0.00 82 1015.5
20260504181505 65 229 5.0 9.0 0.00 0.00 0.00 82 1015.5
20260504181005 65 261 4.0 10.0 0.00 0.00 0.00 82 1015.5
20260504180505 65 238 5.0 12.0 0.00 0.00 0.00 81 1015.3
20260504180003 66 288 7.0 12.0 0.00 0.00 0.00 80 1015.2
20260504175504 66 271 9.0 12.0 0.00 0.00 0.00 78 1015.2
20260504175003 67 279 6.0 10.0 0.00 0.00 0.00 77 1015.1
20260504174503 68 277 7.0 11.0 0.00 0.00 0.00 76 1014.9
20260504174003 68 279 7.0 11.0 0.00 0.00 0.00 75 1014.8
20260504173503 68 270 5.0 9.0 0.00 0.00 0.00 74 1014.8
20260504173003 68 215 4.0 9.0 0.00 0.00 0.00 73 1014.7
20260504172502 68 267 4.0 9.0 0.00 0.00 0.00 74 1014.8
20260504172002 68 296 3.0 7.0 0.00 0.00 0.00 73 1014.9
20260504171505 68 267 1.0 7.0 0.00 0.00 0.00 75 1014.9
20260504171001 68 244 2.0 8.0 0.00 0.00 0.00 77 1015.0
20260504170601 67 262 3.0 8.0 0.00 0.00 0.00 79 1015.1
20260504151051 67 266 6.0 12.0 0.00 0.00 0.00 73 1016.2
20260504150553 67 246 6.0 11.0 0.00 0.00 0.00 73 1016.1
20260504141048 70 338 5.0 11.0 0.00 0.00 0.00 70 1016.1
20260504140546 69 267 6.0 11.0 0.00 0.00 0.00 70 1016.1
20260504130538 65 216 3.0 13.0 0.00 0.00 0.00 85 1016.7
20260504110515 67 274 5.0 10.0 0.00 0.00 0.00 83 1016.9
20260504100600 65 257 5.0 9.0 0.00 0.00 0.00 83 1016.6
20260504100110 66 296 4.0 9.0 0.00 0.00 0.00 81 1016.5
20260504081535 61 262 1.0 3.0 0.00 0.00 0.00 89 1016.3
20260504081029 61 262 0.0 4.0 0.00 0.00 0.00 89 1016.4
20260504080529 60 262 1.0 6.0 0.00 0.00 0.00 88 1016.5